CAPE
421 254 155 270 375 646 636 367 303 144 79 73 153 297 284 299 372 291 425 271 105 493 621 643 570 399 324 322 379 720 899 814 817 839 799 820 764 753
420 390 365 429 600 722 714 590 370 301 286 54 324 332 577 538 496 486 197 112 298 168 194 367 311 304 352 348 275 281 395 609 763 806 729 650 523 629
495 495 415 578 656 585 618 490 499 400 406 328 165 514 512 537 587 524 481 687 701 524 402 331 249 196 322 354 331 230 170 204 315 535 716 648 531 540
506 564 543 585 379 590 549 412 420 535 546 451 405 525 503 472 571 572 717 731 745 544 287 180 123 91 119 166 139 112 78 68 87 142 287 576 603 563
585 542 569 532 526 601 548 552 545 662 671 703 580 442 427 570 701 644 648 634 435 369 232 73 16 5 14 11 3 0 0 0 17 65 116 222 388 481
587 569 463 492 463 461 459 523 427 545 668 774 695 603 550 673 639 703 779 619 645 441 111 62 0 0 0 0 0 0 0 0 0 0 18 68 124 228
493 547 465 720 541 556 539 621 480 380 449 754 725 680 791 738 528 770 560 607 596 176 123 0 0 0 0 0 0 0 0 0 0 0 0 0 15 24
568 616 627 704 716 702 483 543 813 588 559 808 972 952 1045 732 796 671 478 588 446 32 0 0 0 0 0 0 0 0 0 0 0 0 0 0 0 0
649 650 636 825 929 993 810 808 948 861 871 984 1017 858 733 831 750 557 573 476 311 22 0 0 0 0 0 0 0 0 0 0 0 0 0 0 0 0
801 806 797 878 994 919 982 999 1025 987 799 881 969 1073 987 788 670 641 441 200 0 0 0 0 0 0 0 0 0 0 0 0 0 0 0 0 0 0
898 960 1053 1036 905 791 994 1061 907 944 725 713 701 721 481 431 594 189 247 143 88 0 0 0 0 0 0 0 0 0 0 0 0 0 0 1 1 1
902 883 774 941 1029 931 904 869 663 793 860 939 734 522 261 276 90 153 156 146 20 0 0 0 0 0 0 0 0 0 0 0 0 0 0 0 1 2
883 878 852 757 731 558 506 882 928 943 790 903 814 477 162 75 31 0 0 0 0 0 0 0 0 0 0 2 0 0 0 0 0 0 0 0 0 1
26 26 105 575 609 586 362 464 567 460 607 608 546 502 366 124 9 0 0 0 0 0 0 0 2 1 2 2 2 0 0 0 0 1 0 0 0 0
0 2 176 256 189 127 51 17 19 151 432 497 524 355 93 11 0 0 0 0 0 0 0 0 6 7 4 5 4 0 0 1 0 0 1 1 1 1
0 0 4 43 7 0 0 2 17 116 209 244 168 54 0 0 0 0 0 0 0 0 0 0 2 1 2 1 0 0 1 1 0 1 0 1 1 2
0 0 0 0 0 3 2 9 12 17 51 5 0 0 0 0 0 0 0 0 0 1 1 0 0 0 0 0 0 1 0 1 2 2 1 0 0 1
5 19 22 1 0 0 0 0 0 0 0 0 0 0 0 0 0 0 0 0 0 3 4 0 0 0 0 0 0 1 0 0 0 2 2 0 0 2
0 0 0 0 0 0 0 0 0 0 0 0 0 0 0 0 0 0 0 0 1 2 4 0 0 0 0 1 0 1 0 0 0 2 1 0 0 0
0 0 0 0 0 0 0 0 0 0 0 0 0 0 0 0 0 0 0 0 0 7 3 0 0 0 0 0 0 0 0 0 0 0 0 2 2 0
4 2 0 0 0 0 0 0 0 0 0 0 0 0 0 0 0 0 0 0 0 7 3 2 0 0 0 0 0 0 0 0 0 2 3 1 0 0
1 0 0 0 0 0 0 4 5 9 13 0 0 0 0 0 0 0 0 0 0 2 10 4 0 0 0 0 4 0 0 0 0 0 0 1 1 0
0 0 8 5 0 0 0 0 11 42 34 17 0 0 0 0 0 0 0 0 0 6 6 1 0 0 0 0 2 0 0 0 1 0 0 0 0 0
CIN
-43 -53 -64 -64 -70 -58 -64 -65 -32 -13 -26 -57 -47 -93 -113 -107 -116 -124 -109 -118 -151 -113 -95 -103 -105 -118 -121 -122 -106 -63 -36 -36 -24 -23 -27 -17 -18 -13
-45 -46 -54 -46 -40 -40 -44 -50 -78 -43 -14 -69 -47 -71 -70 -72 -85 -94 -128 -159 -134 -157 -155 -115 -133 -129 -117 -114 -129 -119 -93 -77 -47 -30 -31 -36 -32 -20
-35 -32 -40 -38 -28 -34 -39 -42 -48 -65 -37 -52 -90 -79 -67 -61 -65 -90 -105 -86 -87 -111 -131 -141 -162 -165 -139 -132 -144 -148 -154 -137 -108 -78 -48 -42 -41 -29
-31 -29 -29 -27 -36 -35 -35 -33 -38 -49 -44 -38 -67 -58 -63 -76 -84 -91 -75 -76 -69 -93 -130 -142 -168 -195 -189 -160 -169 -173 -179 -184 -191 -164 -122 -75 -62 -44
-22 -26 -31 -30 -31 -32 -35 -39 -45 -42 -51 -41 -44 -74 -70 -66 -60 -81 -71 -80 -110 -122 -134 -205 -231 -47 -245 -237 -115 -0 -0 -0 -182 -216 -194 -154 -83 -84
-40 -31 -39 -38 -29 -27 -29 -31 -41 -46 -49 -41 -37 -46 -62 -65 -75 -57 -52 -87 -72 -89 -172 -191 -0 -0 -0 -0 -0 -0 -0 -0 -0 -0 -246 -220 -181 -92
-65 -47 -51 -40 -42 -32 -29 -28 -44 -51 -41 -29 -31 -43 -42 -49 -53 -56 -98 -102 -103 -164 -189 -0 -0 -0 -0 -0 -0 -0 -0 -0 -0 -0 -0 -0 -244 -189
-44 -49 -55 -43 -36 -36 -50 -47 -34 -37 -31 -25 -22 -30 -32 -51 -57 -58 -88 -90 -106 -297 -0 -0 -0 -0 -0 -0 -0 -0 -0 -0 -0 -0 -0 -0 -0 -0
-63 -64 -61 -46 -39 -28 -34 -33 -35 -42 -42 -26 -27 -45 -56 -46 -61 -87 -84 -87 -109 -90 -0 -0 -0 -0 -0 -0 -0 -0 -0 -0 -0 -0 -0 -0 -0 -0
-32 -28 -26 -26 -23 -25 -20 -21 -19 -26 -46 -53 -49 -33 -45 -73 -87 -87 -107 -160 -0 -0 -0 -0 -0 -0 -0 -0 -0 -0 -0 -0 -0 -0 -0 -0 -0 -0
-50 -26 -18 -15 -29 -41 -16 -15 -24 -34 -69 -79 -82 -87 -125 -143 -125 -204 -171 -189 -206 -0 -0 -0 -0 -0 -0 -0 -0 -0 -0 -0 -0 -0 -0 -0 -0 -0
-91 -69 -79 -69 -50 -35 -25 -23 -48 -73 -39 -33 -63 -109 -176 -156 -231 -182 -184 -177 -162 -0 -0 -0 -0 -0 -0 -0 -0 -0 -0 -0 -0 -0 -0 -0 -0 -0
-122 -97 -110 -117 -86 -82 -65 -26 -28 -34 -40 -27 -49 -112 -209 -238 -255 -0 -0 -0 -0 -0 -0 -0 -0 -0 -0 -6 -0 -0 -0 -0 -0 -0 -0 -0 -0 -0
-102 -304 -245 -139 -106 -96 -125 -91 -79 -80 -48 -43 -74 -105 -118 -188 -126 -0 -0 -0 -0 -0 -0 -0 -0 -1 -2 -4 -4 -0 -0 -0 -0 -0 -0 -0 -0 -0
-0 -97 -204 -178 -229 -246 -263 -308 -342 -198 -93 -82 -64 -83 -137 -250 -0 -0 -0 -0 -0 -0 -0 -0 -13 -5 -8 -3 -0 -0 -0 -0 -0 -0 -0 -0 -0 -0
-0 -0 -202 -405 -478 -0 -0 -59 -312 -205 -146 -131 -158 -205 -0 -0 -0 -0 -0 -0 -0 -0 -0 -0 -26 -9 -5 -10 -0 -0 -0 -0 -5 -0 -0 -0 -0 -0
-0 -0 -0 -0 -0 -234 -229 -197 -192 -309 -249 -153 -0 -0 -0 -0 -0 -0 -0 -0 -0 -7 -4 -13 -0 -0 -0 -1 -0 -0 -0 -0 -0 -0 -0 -0 -0 -0
-334 -412 -318 -106 -0 -0 -0 -0 -0 -0 -0 -0 -0 -0 -0 -0 -0 -0 -0 -0 -1 -2 -11 -0 -0 -0 -0 -0 -0 -0 -0 -0 -0 -0 -0 -0 -0 -0
-14 -0 -0 -0 -0 -0 -0 -0 -0 -0 -0 -0 -0 -0 -0 -0 -0 -0 -0 -0 -2 -1 -14 -0 -0 -7 -0 -0 -0 -0 -0 -0 -0 -0 -0 -0 -0 -0
-0 -59 -0 -0 -0 -0 -0 -0 -0 -0 -0 -0 -0 -0 -0 -0 -0 -0 -0 -0 -0 -6 -12 -5 -16 -0 -3 -2 -6 -0 -0 -0 -0 -0 -0 -0 -0 -0
-266 -250 -0 -0 -0 -0 -0 -0 -0 -0 -0 -0 -0 -0 -0 -0 -0 -0 -0 -0 -1 -8 -8 -15 -10 -0 -0 -0 -3 -0 -0 -0 -0 -0 -0 -0 -0 -0
-68 -0 -0 -0 -0 -0 -0 -150 -148 -147 -195 -0 -0 -0 -0 -0 -0 -0 -0 -0 -0 -2 -7 -21 -0 -0 -0 -0 -11 -26 -0 -0 -0 -0 -0 -0 -0 -0
-0 -0 -231 -199 -0 -0 -0 -0 -216 -184 -193 -176 -0 -0 -0 -0 -0 -0 -0 -0 -0 -9 -10 -17 -1 -0 -0 -0 -30 -0 -0 -0 -0 -0 -0 -0 -0 -0
Wind_Speed
23 23 24 23 18 18 17 15 16 16 14 15 15 16 14 13 14 15 6 3 11 8 3 2 2 2 1 3 5 4 5 5 6 6 5 4 4 3
24 24 23 24 20 19 18 16 15 15 14 14 16 17 15 12 17 16 10 18 11 6 8 6 4 1 1 3 5 5 7 8 8 8 7 7 6 7
29 28 27 23 22 20 19 17 14 11 12 18 16 18 19 18 20 19 22 25 25 26 26 1 2 2 3 4 6 8 9 10 10 11 12 10 10 10
30 27 25 24 24 20 20 19 17 10 12 14 21 22 22 22 22 24 21 22 20 22 23 24 21 15 10 9 7 7 8 10 10 12 11 12 12 12
22 18 17 19 21 24 25 24 19 16 15 19 22 22 23 23 23 22 22 25 19 21 26 27 25 21 18 15 14 13 11 11 11 11 13 13 13 13
9 10 10 13 22 19 17 14 17 18 19 18 22 24 21 22 20 21 27 22 23 24 24 23 24 26 27 22 18 18 16 14 14 14 14 15 16 15
8 8 8 8 7 12 17 18 22 26 22 21 25 26 29 30 29 24 25 26 22 19 23 26 29 30 30 28 27 23 18 16 16 16 16 15 14 14
9 9 9 8 10 10 7 16 31 29 30 28 28 29 32 28 26 25 25 26 29 23 26 29 27 28 27 26 27 25 24 23 18 16 14 15 17 17
9 10 12 17 11 13 31 35 37 35 36 35 35 32 31 26 24 26 23 22 23 25 29 31 26 28 24 25 24 23 23 23 24 15 8 8 11 12
11 13 14 18 19 20 21 26 28 31 25 12 11 18 17 20 19 23 23 22 25 25 25 29 25 26 28 24 20 22 23 25 26 24 15 6 4 8
16 14 14 15 16 15 16 17 17 16 21 17 16 16 17 16 17 18 19 21 26 27 23 26 25 28 27 23 18 21 23 24 25 24 21 14 7 6
14 13 11 13 12 10 10 13 14 16 17 18 19 19 17 18 14 14 19 20 24 30 22 21 26 27 27 20 20 22 24 24 27 23 22 20 14 10
11 12 17 17 20 16 10 16 22 23 19 18 20 22 20 18 16 17 17 19 21 22 22 20 24 24 22 23 21 24 23 27 26 26 24 23 20 11
11 13 21 22 23 23 17 13 30 30 26 26 25 22 19 18 18 19 21 22 20 20 20 17 23 22 23 26 26 23 26 27 24 26 25 22 19 17
10 15 23 24 27 27 28 33 27 25 24 24 26 24 21 21 22 21 21 22 22 19 17 18 20 21 20 22 25 24 27 23 23 25 24 21 18 16
26 28 28 17 20 25 26 24 23 22 22 24 24 24 23 24 23 21 21 20 21 21 19 20 20 20 22 20 21 25 24 23 23 21 21 19 18 15
33 28 26 27 28 26 23 21 18 17 19 21 21 22 20 21 22 20 21 20 22 22 21 19 20 21 21 20 24 20 22 22 20 18 18 19 18 15
24 26 27 28 27 27 25 20 19 17 16 16 15 12 11 14 16 18 18 18 21 21 18 19 19 22 22 19 14 17 19 20 19 17 15 17 17 17
22 25 28 28 28 27 26 25 24 19 18 18 15 12 10 10 11 14 13 12 15 15 20 18 18 20 24 25 19 11 16 17 18 18 15 14 15 17
22 24 26 29 28 26 25 25 25 24 20 19 21 19 13 11 10 10 9 11 13 16 21 17 17 16 19 21 19 17 10 14 16 18 18 17 15 14
23 27 27 27 29 28 28 28 27 27 27 23 22 23 20 13 14 13 13 11 12 16 17 18 13 13 16 17 18 18 15 10 13 16 17 18 18 17
24 26 26 27 29 29 28 28 27 28 28 27 26 24 21 18 16 17 14 14 15 17 18 17 15 12 13 14 16 16 17 17 15 14 13 14 17 17
26 26 29 31 31 29 27 27 29 29 29 31 28 25 22 20 18 17 16 16 16 18 17 18 15 14 15 15 15 17 17 18 19 20 20 13 9 9
Wind_Direction
283 282 282 287 304 308 310 321 328 341 343 337 344 344 353 1 1 355 52 74 209 181 132 67 137 156 179 218 226 263 280 265 227 222 227 232 237 289
280 279 286 286 295 301 303 310 322 330 337 337 332 333 342 358 337 349 14 233 210 168 181 187 197 235 286 247 230 262 233 256 269 251 261 263 276 298
270 272 276 287 290 298 299 306 318 329 331 320 328 324 325 330 326 333 327 306 275 291 285 169 326 262 259 259 259 242 245 240 249 271 280 274 287 294
266 274 279 284 285 292 293 302 312 323 320 321 309 310 311 314 315 314 331 330 339 337 335 334 340 349 343 329 312 284 270 254 250 240 246 261 273 278
272 276 285 289 288 282 285 292 303 314 313 308 304 311 309 314 318 325 330 325 341 337 327 328 334 337 335 327 316 307 297 284 270 259 248 248 255 264
228 259 273 285 281 290 298 305 308 309 308 306 302 303 317 317 331 333 319 336 333 332 335 339 339 336 332 329 322 317 308 290 281 275 263 256 237 238
227 238 247 259 253 286 294 297 294 286 297 301 298 296 288 281 296 324 326 327 336 342 340 339 335 335 334 331 325 319 315 311 306 296 280 259 256 250
230 250 251 244 274 273 253 205 271 277 279 287 287 289 281 299 312 322 327 328 327 342 338 334 340 340 343 345 337 332 323 317 314 312 300 279 275 274
243 264 274 280 273 285 258 238 248 261 257 266 269 283 288 302 316 320 327 331 334 337 336 331 338 338 346 347 348 347 341 332 324 328 307 273 263 261
262 269 274 279 280 282 285 283 282 277 286 290 291 302 307 313 322 322 326 330 332 336 340 334 338 337 338 345 350 348 344 334 326 331 338 317 263 257
276 275 276 278 280 278 283 286 290 289 291 291 294 298 305 313 318 323 325 328 331 335 342 336 337 335 339 346 354 351 346 340 335 331 332 337 315 271
272 271 256 269 272 255 258 279 283 286 291 294 295 299 305 309 312 314 321 324 328 329 343 340 331 335 338 353 353 352 345 344 334 337 334 328 329 325
259 272 278 278 281 281 256 284 285 290 291 291 293 298 301 304 308 311 314 319 324 327 335 337 331 335 341 341 347 347 348 339 338 334 330 326 323 319
235 268 283 276 278 284 293 292 283 284 290 291 293 295 295 298 303 306 309 311 317 323 331 335 327 331 332 330 333 344 343 340 344 336 333 332 329 324
289 273 269 272 273 279 283 279 290 292 291 292 293 295 297 300 303 307 310 312 314 320 326 328 323 328 334 333 330 339 341 351 348 341 343 344 337 335
261 259 264 289 293 293 295 298 298 299 296 294 297 300 303 299 298 299 304 308 308 311 317 319 319 323 325 335 337 333 342 345 349 352 355 359 357 351
257 272 272 276 286 294 297 301 306 308 304 304 306 306 305 299 297 301 303 306 305 306 307 309 312 319 327 332 329 343 343 344 349 359 3 359 2 9
270 270 276 281 285 289 294 302 306 308 311 311 313 316 316 308 306 305 308 309 309 306 299 303 309 316 324 333 347 346 348 348 351 356 8 8 6 5
280 281 279 283 286 290 292 295 299 300 306 305 308 313 314 315 312 311 315 316 317 310 296 302 310 313 312 318 338 355 354 356 353 349 355 3 358 355
287 289 288 285 287 290 291 293 296 299 298 299 300 302 301 303 305 305 309 312 313 304 295 306 311 316 319 323 331 342 359 354 354 350 349 352 358 359
288 287 290 293 290 292 293 293 293 292 292 294 293 297 296 292 296 296 299 301 307 304 300 303 313 321 325 330 329 334 344 353 352 348 348 346 346 350
292 290 292 292 290 292 296 297 293 290 291 290 290 291 287 285 288 291 288 294 296 302 301 306 315 320 323 325 327 331 334 339 343 344 347 346 345 345
291 290 290 289 290 293 295 295 292 292 291 287 287 286 280 279 281 285 285 288 293 297 299 300 307 313 315 321 323 325 328 330 331 330 330 339 342 343